Location: Newark
(48.1500°N, 13.1167°E)
Time: 07:11:19
(UTC+00:00)

KAITUO 1B - Pass Details

Date: 06 December 2021
Orbit: 486 x 507 km, 97.4° (Epoch: 18 January)

Event Time Altitude Azimuth Distance (km) Brightness Sun altitude
Rises 17:55:58 0° 212° (SSW) 2,601 ? -26.0°
Reaches altitude 10° 17:59:00 10° 240° (WSW) 1,727 ? -26.5°
Maximum altitude 18:00:51 13° 271° (W) 1,534 ? -26.8°
Drops below altitude 10° 18:02:44 10° 301° (WNW) 1,739 ? -27.1°
Sets 18:05:49 0° 329° (NNW) 2,634 ? -27.6°
